Location: Meanaryar
(48.4161°N, 4.7315°W)
Time: 14:49:19
(UTC+00:00)

Cosmos 1092 Rocket - Pass Details

Date: 26 January 2021
Orbit: 954 x 995 km, 83.0° (Epoch: 01 March)

Event Time Altitude Azimuth Distance (km) Brightness Sun altitude
Rises 05:49:02 0° 349° (N) 3,645 6.8 -20.8°
Reaches altitude 10° 05:51:32 10° 349° (N) 2,697 6.1 -20.4°
Maximum altitude 05:57:42 80° 264° (W) 979 3.9 -19.4°
Drops below altitude 10° 06:03:52 10° 178° (S) 2,697 6.4 -18.3°
Sets 06:06:22 0° 177° (S) 3,645 7.1 -17.9°
